Cincinnati, OH

12:54 AM EDT on April 21, 2018 (GMT -0400)
Cincinnati Municipal-Lunken

Weather History for KLUK - September, 2014

Change the Weather History Date:

Monday, September 1, 2014

  Actual Average Record
Temperature  
Mean Temperature 78 °F -  
Max Temperature 87 °F 83 °F 100 °F (1951)
Min Temperature 69 °F 62 °F 47 °F (1967)
Cooling Degree Days 13    
Growing Degree Days 28 (Base 50)    
Moisture  
Dew Point 71 °F    
Average Humidity 87    
Maximum Humidity 100    
Minimum Humidity 59    
Precipitation  
Precipitation 0.43 in - - ()
Sea Level Pressure  
Sea Level Pressure 29.97 in    
Wind  
Wind Speed 5 mph (SSW)    
Max Wind Speed 20 mph    
Max Gust Speed 24 mph    
Visibility 9 miles    
Events Rain    
Averages and records for this station are not official NWS values.
T = Trace of Precipitation, MM = Missing Value Source: NWS Daily Summary

Daily Weather History Graph

Daily Weather History Graph

Search for Another Location

Airport or City:

Astronomy

Sep. 01, 2014 Rise Set
Actual Time 7:06 AM EDT 8:08 PM EDT
Civil Twilight 6:38 AM EDT 8:35 PM EDT
Nautical Twilight 6:06 AM EDT 9:08 PM EDT
Astronomical Twilight 5:32 AM EDT 9:41 PM EDT
Moon 1:48 PM EDT (9/1) No Moon Set
Length of Visible Light 13h 56m
Length of Day
13h 01m
Waxing Crescent, 42% of the Moon is Illuminated
Sep 1
Waxing Crescent
Sep 2
First Quarter
Sep 8
Full
Sep 15
Last Quarter
Sep 24
New

Hourly Weather History & Observations

Time (EDT) Temp. Heat Index Dew Point Humidity Pressure Visibility Wind Dir Wind Speed Gust Speed Precip Events Conditions
12:53 AM 69.1 °F - 69.1 °F 100% 29.99 in 10.0 mi SW 4.6 mph - N/A   Clear
1:17 AM 70.0 °F - 69.1 °F 97% 30.00 in 9.0 mi Calm Calm - N/A   Partly Cloudy
1:53 AM 69.1 °F - 69.1 °F 100% 30.00 in 10.0 mi Calm Calm - N/A   Overcast
2:00 AM 70.0 °F - 69.1 °F 97% 30.01 in 10.0 mi Calm Calm - N/A   Overcast
2:07 AM 69.8 °F - 69.8 °F 100% 30.01 in 10.0 mi Calm Calm - N/A   Overcast
2:33 AM 71.1 °F - 70.0 °F 96% 30.01 in 10.0 mi Calm Calm - N/A   Overcast
2:53 AM 72.0 °F - 70.0 °F 93% 29.99 in 10.0 mi Calm Calm - N/A   Overcast
3:04 AM 71.1 °F - 70.0 °F 96% 30.00 in 10.0 mi Calm Calm - N/A   Overcast
3:53 AM 72.0 °F - 71.1 °F 97% 29.99 in 10.0 mi SSW 3.5 mph - N/A   Overcast
4:00 AM 72.0 °F - 71.1 °F 97% 30.01 in 10.0 mi SW 3.5 mph - N/A   Overcast
4:53 AM 72.0 °F - 71.1 °F 97% 29.99 in 10.0 mi South 3.5 mph - N/A   Mostly Cloudy
5:03 AM 72.0 °F - 72.0 °F 100% 30.00 in 10.0 mi South 4.6 mph - N/A   Overcast
5:17 AM 73.0 °F - 72.0 °F 96% 30.01 in 10.0 mi SSW 4.6 mph - N/A   Overcast
5:34 AM 73.0 °F - 72.0 °F 96% 30.01 in 9.0 mi SSW 3.5 mph - 0.00 in Rain Light Rain
5:53 AM 73.0 °F - 72.0 °F 96% 30.00 in 9.0 mi Calm Calm - 0.00 in   Mostly Cloudy
6:33 AM 73.0 °F - 72.0 °F 96% 30.00 in 9.0 mi Calm Calm - N/A   Overcast
6:53 AM 73.0 °F - 72.0 °F 96% 30.00 in 9.0 mi SW 5.8 mph - N/A   Overcast
7:53 AM 75.0 °F - 72.0 °F 90% 30.00 in 9.0 mi SSW 6.9 mph - N/A   Overcast
8:53 AM 75.9 °F - 72.0 °F 87% 29.99 in 8.0 mi South 9.2 mph - N/A   Mostly Cloudy
9:14 AM 75.0 °F - 72.0 °F 90% 30.01 in 2.0 mi SSW 8.1 mph - 0.05 in Rain Light Rain
9:45 AM 75.0 °F - 73.0 °F 94% 30.01 in 3.0 mi SSW 6.9 mph - 0.21 in Rain Light Rain
9:53 AM 75.0 °F - 73.0 °F 94% 30.00 in 6.0 mi SSW 6.9 mph - 0.21 in Rain Light Rain
10:53 AM 78.8 °F - 73.4 °F 83% 30.01 in 10.0 mi SSW 11.5 mph 18.4 mph N/A   Overcast
11:53 AM 81.0 °F 85.8 °F 73.0 °F 77% 29.96 in 10.0 mi SSW 12.7 mph - N/A   Mostly Cloudy
12:53 PM 84.0 °F 89.6 °F 72.0 °F 67% 29.94 in 10.0 mi SW 15.0 mph 21.9 mph N/A   Mostly Cloudy
1:53 PM 75.0 °F - 72.0 °F 90% 29.94 in 3.0 mi SW 8.1 mph 24.2 mph 0.22 in Rain Heavy Rain
2:53 PM 82.0 °F 88.6 °F 75.0 °F 79% 29.92 in 10.0 mi South 8.1 mph - 0.00 in   Partly Cloudy
3:53 PM 86.0 °F 91.5 °F 71.1 °F 61% 29.91 in 10.0 mi SSW 11.5 mph 20.7 mph N/A   Mostly Cloudy
4:53 PM 87.1 °F 92.8 °F 71.1 °F 59% 29.90 in 10.0 mi SW 19.6 mph 23.0 mph N/A   Scattered Clouds
5:53 PM 84.0 °F 89.6 °F 72.0 °F 67% 29.90 in 10.0 mi SSW 16.1 mph 21.9 mph N/A   Partly Cloudy
6:53 PM 82.0 °F 86.7 °F 72.0 °F 71% 29.91 in 10.0 mi SSW 9.2 mph - N/A   Scattered Clouds
7:53 PM 82.0 °F 86.7 °F 72.0 °F 71% 29.91 in 10.0 mi SSW 11.5 mph - N/A   Partly Cloudy
8:53 PM 79.0 °F - 72.0 °F 79% 29.92 in 10.0 mi SSW 9.2 mph - N/A   Partly Cloudy
9:53 PM 78.1 °F - 70.0 °F 76% 29.93 in 10.0 mi SSW 8.1 mph - N/A   Clear
10:53 PM 77.0 °F - 70.0 °F 79% 29.94 in 10.0 mi SW 9.2 mph - N/A   Clear
11:53 PM 77.0 °F - 70.0 °F 79% 29.95 in 10.0 mi SW 9.2 mph - N/A   Clear